{"data":{"norad_id":59035,"intl_designator":"2024-038N","name":"STARLINK-31207","alt_names":[],"object_type":"PAYLOAD","status":"ACTIVE","operator":null,"country":"US","launch_date":"2024-02-25","launch_site_code":"AFETR","launch_vehicle":null,"mission":null,"orbit_class":"UNKNOWN","rcs_meters":null,"size_class":null,"mass_kg":null,"dimensions":null,"purposes":["comms"],"wikipedia_slug":null,"has_3d_model":false,"image_url":null,"decayed_at":null,"tle_current":{"epoch":"2026-09-20T18:30:23.487552Z","epoch_age_seconds":133043,"freshness":"FRESH","line1":"1 59035U 24038N   26263.77110518  .00000859  00000+0  40706-4 0  9990","line2":"2 59035  43.0023   1.8282 0000555 313.1447  46.9358 15.27583327144697","mean_motion":15.27583327,"eccentricity":5.55e-5,"inclination_deg":43.0023,"raan_deg":1.8282,"arg_perigee_deg":313.1447,"mean_anomaly_deg":46.9358,"bstar":4.0706e-5,"rev_number":14469,"period_min":94.266543405393,"perigee_km":482.65833854743,"apogee_km":483.41992909828,"semimajor_km":6861.1761338229,"source":"CELESTRAK","updated_at":"2026-09-21T09:00:34.030383Z"}}}